period_start,C,m1,H,J0,J1,J2,J3,J4,J5,JA,JB,JC,JD,JJ,JK,JN,#
2014-09-16 00:03:27,0.00,0.03,0.00,22.66,27.24,29.79,9.56,40.60,1004.93,2038.09,3478.01,3319.06,3606.99,500.00,491.64,2.51,0000 0000 0000 0000 000000
2014-09-16 00:08:28,0.05,0.03,0.00,22.64,27.22,29.76,9.53,40.40,1004.92,2038.40,3478.00,3319.06,3606.99,500.11,491.81,2.56,0000 0000 0000 0000 000000
2014-09-16 00:13:29,0.02,0.03,0.00,22.63,27.22,29.73,9.56,40.39,1004.94,2038.69,3477.95,3319.04,3606.98,500.08,491.85,2.60,0000 0000 0000 0000 000000
2014-09-16 00:18:30,0.01,0.03,0.00,22.63,27.20,29.70,9.51,40.47,1005.20,2038.84,3477.87,3319.02,3606.93,499.98,491.70,2.64,0000 0000 0000 0000 000000
2014-09-16 00:23:31,0.03,0.03,0.00,22.66,27.20,29.68,9.53,40.38,1005.32,2038.92,3477.14,3319.00,3606.35,499.88,491.73,2.68,0000 0000 0000 0000 000000
2014-09-16 00:28:33,0.00,0.03,0.00,22.63,27.18,29.64,9.51,40.48,1005.34,2038.97,3477.00,3319.00,3606.11,500.13,492.09,2.72,0000 0000 0000 0000 000000
2014-09-16 00:33:34,-0.00,0.03,0.00,22.62,27.17,29.68,9.52,40.42,1005.35,2038.95,3476.98,3319.00,3606.03,500.02,491.78,2.76,0000 0000 0000 0000 000000
2014-09-16 00:38:35,0.00,0.03,0.00,22.59,27.17,29.56,9.55,40.42,1005.32,2038.99,3476.94,3319.00,3606.02,500.14,491.93,2.81,0000 0000 0000 0000 000000
2014-09-16 00:43:35,0.00,0.03,0.00,22.59,27.15,29.59,9.49,40.27,1005.18,2038.99,3476.71,3318.99,3606.00,499.98,491.95,2.85,0000 0000 0000 0000 000000
2014-09-16 00:48:37,0.01,0.04,0.00,22.61,27.15,29.60,9.52,40.29,1005.32,2038.99,3476.25,3318.99,3606.00,500.12,491.97,2.89,0000 0000 0000 0000 000000
2014-09-16 00:53:38,0.00,0.04,0.00,22.59,27.15,29.68,9.44,40.20,1005.28,2038.99,3476.02,3318.99,3605.99,499.76,491.56,2.93,0000 0000 0000 0000 000000
2014-09-16 00:58:39,0.00,0.04,0.00,22.59,27.14,29.67,9.57,40.42,1005.17,2038.99,3476.00,3318.98,3605.97,500.27,492.04,2.97,0000 0000 0000 0000 000000
2014-09-16 01:03:41,0.00,0.04,0.00,22.59,27.12,29.65,9.49,40.51,1004.92,2039.00,3476.00,3318.96,3605.94,500.13,491.95,3.02,0000 0000 0000 0000 000000
2014-09-16 01:08:42,0.00,0.04,0.00,22.60,27.12,29.67,9.45,40.48,1004.91,2039.01,3475.99,3318.97,3605.90,499.99,491.63,3.06,0000 0000 0000 0000 000000
2014-09-16 01:13:43,0.02,0.04,0.00,22.59,27.12,29.60,9.49,40.45,1004.90,2039.00,3475.61,3318.85,3605.33,500.38,491.92,3.10,0000 0000 0000 0000 000000
2014-09-16 01:18:43,0.01,0.04,0.00,22.59,27.12,29.56,9.53,40.30,1004.90,2039.00,3475.20,3318.76,3605.09,500.35,491.98,3.14,0000 0000 0000 0000 000000
2014-09-16 01:23:45,0.01,0.04,0.00,22.59,27.11,29.57,9.55,40.52,1004.90,2039.03,3475.02,3318.70,3605.03,500.04,491.73,3.18,0000 0000 0000 0000 000000
2014-09-16 01:28:46,0.02,0.04,0.00,22.60,27.10,29.64,9.46,40.43,1004.90,2039.02,3474.87,3318.12,3605.00,500.06,491.73,3.22,0000 0000 0000 0000 000000
2014-09-16 01:33:47,0.02,0.04,0.00,22.60,27.10,29.60,9.53,40.38,1004.90,2039.05,3474.14,3318.01,3604.97,500.32,491.92,3.27,0000 0000 0000 0000 000000
2014-09-16 01:38:48,0.02,0.04,0.00,22.59,27.10,29.56,9.57,40.37,1004.91,2039.15,3474.00,3318.00,3604.75,499.95,491.67,3.31,0000 0000 0000 0000 000000
2014-09-16 01:43:49,0.05,0.04,0.00,22.59,27.10,29.62,9.48,40.28,1004.90,2039.50,3473.97,3318.00,3604.45,499.79,491.51,3.35,0000 0000 0000 0000 000000
2014-09-16 01:48:50,0.02,0.04,0.00,22.59,27.10,29.60,9.47,40.39,1004.89,2039.66,3473.59,3317.99,3604.12,499.99,491.71,3.39,0000 0000 0000 0000 000000
2014-09-16 01:53:51,0.03,0.04,0.00,22.62,27.10,29.57,9.51,40.37,1004.84,2039.76,3473.05,3317.97,3604.01,499.96,491.52,3.43,0000 0000 0000 0000 000000
2014-09-16 01:58:52,0.01,0.04,0.00,22.61,27.09,29.59,9.47,40.27,1004.65,2039.70,3472.98,3317.84,3603.99,499.94,491.56,3.48,0000 0000 0000 0000 000000
2014-09-16 02:03:53,0.03,0.05,0.00,22.60,27.08,29.53,9.55,40.27,1004.42,2039.91,3472.63,3317.41,3603.89,500.39,491.71,3.52,0000 0000 0000 0000 000000
2014-09-16 02:08:54,0.01,0.05,0.00,22.64,27.07,29.54,9.53,40.38,1004.41,2039.81,3472.05,3317.05,3603.19,500.44,491.97,3.56,0000 0000 0000 0000 000000
2014-09-16 02:13:55,0.01,0.05,0.00,22.62,27.07,29.52,9.54,40.44,1004.41,2039.86,3472.00,3317.01,3603.01,500.34,491.73,3.60,0000 0000 0000 0000 000000
2014-09-16 02:18:56,0.01,0.05,0.00,22.64,27.07,29.54,9.49,40.42,1004.36,2039.85,3471.88,3317.00,3603.00,499.81,491.11,3.64,0000 0000 0000 0000 000000
2014-09-16 02:23:58,0.02,0.05,0.00,22.67,27.08,29.57,9.50,40.28,1004.37,2039.88,3471.13,3316.92,3602.61,500.23,491.51,3.68,0000 0000 0000 0000 000000
2014-09-16 02:28:59,0.02,0.05,0.00,22.65,27.08,29.53,9.49,40.28,1004.20,2039.81,3471.00,3316.49,3602.05,500.14,491.41,3.73,0000 0000 0000 0000 000000
2014-09-16 02:34:00,0.03,0.05,0.00,22.64,27.09,29.51,9.46,40.32,1003.96,2039.92,3470.50,3316.09,3602.00,499.67,490.83,3.77,0000 0000 0000 0000 000000
2014-09-16 02:39:01,0.00,0.05,0.00,22.65,27.10,29.50,9.50,40.27,1003.92,2039.94,3470.01,3316.01,3601.96,500.12,491.24,3.81,0000 0000 0000 0000 000000
2014-09-16 02:44:02,0.02,0.05,0.00,22.65,27.10,29.52,9.47,40.27,1003.92,2039.95,3469.78,3316.00,3601.43,500.24,491.47,3.85,0000 0000 0000 0000 000000
2014-09-16 02:49:03,0.01,0.05,0.00,22.64,27.10,29.49,9.47,40.19,1003.92,2039.95,3469.06,3315.94,3601.03,499.98,491.00,3.89,0000 0000 0000 0000 000000
2014-09-16 02:54:04,0.01,0.05,0.00,22.64,27.10,29.48,9.48,40.32,1003.92,2039.96,3468.95,3315.55,3600.98,500.20,491.28,3.94,0000 0000 0000 0000 000000
2014-09-16 02:59:05,0.03,0.05,0.00,22.68,27.10,29.49,9.52,40.27,1003.89,2039.98,3468.26,3315.06,3600.80,500.29,491.28,3.98,0000 0000 0000 0000 000000
2014-09-16 03:04:07,0.01,0.06,0.00,22.67,27.10,29.49,9.53,40.33,1003.92,2039.96,3467.99,3315.00,3600.14,500.18,491.27,4.02,0000 0000 0000 0000 000000
2014-09-16 03:09:08,0.01,0.06,0.00,22.68,27.10,29.48,9.49,40.36,1003.92,2039.98,3467.54,3315.00,3600.00,499.98,490.89,4.06,0000 0000 0000 0000 000000
2014-09-16 03:14:09,0.00,0.06,0.00,22.68,27.10,29.48,9.47,40.32,1003.91,2039.97,3467.03,3314.97,3599.98,500.06,491.16,4.10,0000 0000 0000 0000 000000
2014-09-16 03:19:10,0.02,0.06,0.00,22.70,27.10,29.51,9.50,40.35,1003.90,2039.98,3466.93,3314.78,3599.73,500.23,491.21,4.14,0000 0000 0000 0000 000000
2014-09-16 03:24:11,0.05,0.06,0.00,22.71,27.09,29.50,9.48,40.47,1003.88,2039.99,3466.07,3314.03,3598.89,499.87,490.89,4.19,0000 0000 0000 0000 000000
2014-09-16 03:29:12,0.01,0.06,0.00,22.73,27.09,29.49,9.49,40.48,1003.82,2039.98,3465.98,3313.93,3598.31,500.09,490.94,4.23,0000 0000 0000 0000 000000
2014-09-16 03:34:14,0.02,0.06,0.00,22.75,27.09,29.51,9.48,40.33,1003.66,2039.99,3465.53,3313.82,3598.07,500.06,490.73,4.27,0000 0000 0000 0000 000000
2014-09-16 03:39:14,0.02,0.06,0.00,22.75,27.09,29.50,9.51,40.27,1003.52,2039.99,3465.03,3313.24,3598.01,500.47,491.23,4.31,0000 0000 0000 0000 000000
2014-09-16 03:44:15,0.00,0.06,0.00,22.75,27.10,29.50,9.44,40.24,1003.44,2039.99,3464.98,3313.05,3597.99,499.92,490.64,4.35,0000 0000 0000 0000 000000
2014-09-16 03:49:17,0.02,0.06,0.00,22.77,27.10,29.50,9.47,40.45,1003.44,2039.99,3464.29,3313.00,3597.71,500.05,490.52,4.40,0000 0000 0000 0000 000000
2014-09-16 03:54:18,0.04,0.06,0.00,22.78,27.10,29.52,9.49,40.38,1003.43,2039.99,3463.61,3312.60,3597.03,499.79,490.50,4.44,0000 0000 0000 0000 000000
2014-09-16 03:59:19,0.01,0.07,0.00,22.81,27.10,29.48,9.49,40.23,1003.39,2039.99,3463.00,3312.02,3596.67,500.29,490.79,4.48,0000 0000 0000 0000 000000
2014-09-16 04:04:20,0.01,0.07,0.00,22.81,27.10,29.46,9.51,40.38,1003.13,2039.99,3462.82,3312.00,3596.09,500.23,490.57,4.52,0000 0000 0000 0000 000000
2014-09-16 04:09:21,0.01,0.07,0.00,22.83,27.10,29.48,9.45,40.50,1003.03,2039.98,3462.10,3311.99,3596.00,499.38,489.88,4.56,0000 0000 0000 0000 000000
2014-09-16 04:14:22,0.00,0.07,0.00,22.83,27.10,29.48,9.42,40.36,1003.25,2039.98,3461.99,3311.94,3596.00,499.81,490.15,4.60,0000 0000 0000 0000 000000
2014-09-16 04:19:23,0.02,0.07,0.00,22.82,27.10,29.50,9.59,40.48,1003.35,2039.98,3461.92,3311.58,3595.76,500.49,491.04,4.65,0000 0000 0000 0000 000000
2014-09-16 04:24:24,0.02,0.07,0.00,22.84,27.10,29.50,9.49,40.39,1003.30,2039.99,3461.42,3311.20,3595.26,500.05,490.55,4.69,0000 0000 0000 0000 000000
2014-09-16 04:29:25,0.01,0.07,0.00,22.84,27.10,29.52,9.49,40.25,1003.03,2039.97,3461.03,3311.05,3595.02,499.62,490.10,4.73,0000 0000 0000 0000 000000
2014-09-16 04:34:26,0.00,0.07,0.00,22.85,27.11,29.50,9.51,40.39,1002.94,2039.98,3460.99,3311.01,3595.00,500.06,490.41,4.77,0000 0000 0000 0000 000000
2014-09-16 04:39:27,0.02,0.07,0.00,22.87,27.12,29.50,9.47,40.25,1002.94,2039.98,3460.49,3310.98,3594.72,500.65,490.72,4.81,0000 0000 0000 0000 000000
2014-09-16 04:44:28,0.01,0.07,0.00,22.86,27.12,29.49,9.42,40.17,1002.81,2039.98,3460.02,3310.97,3594.20,499.51,489.74,4.86,0000 0000 0000 0000 000000
2014-09-16 04:49:30,0.01,0.07,0.00,22.85,27.12,29.51,9.43,40.30,1002.61,2039.99,3459.97,3310.67,3594.00,499.97,490.10,4.90,0000 0000 0000 0000 000000
2014-09-16 04:54:31,0.03,0.07,0.00,22.85,27.12,29.51,9.48,40.39,1002.46,2039.96,3459.37,3310.16,3593.93,500.12,489.99,4.94,0000 0000 0000 0000 000000
2014-09-16 04:59:32,0.01,0.07,0.00,22.86,27.13,29.53,9.41,40.39,1002.46,2039.98,3459.00,3310.01,3593.21,499.73,489.76,4.98,0000 0000 0000 0000 000000
2014-09-16 05:04:33,0.00,0.07,0.00,22.88,27.15,29.54,9.48,40.30,1002.46,2039.97,3458.81,3309.99,3593.01,499.60,489.59,5.02,0000 0000 0000 0000 000000
2014-09-16 05:09:34,0.03,0.07,0.00,22.89,27.15,29.54,9.45,40.37,1002.46,2039.92,3458.04,3309.64,3592.67,499.84,489.81,5.06,0000 0000 0000 0000 000000
2014-09-16 05:14:35,0.03,0.08,0.00,22.88,27.15,29.54,9.44,40.51,1002.47,2039.83,3457.63,3309.05,3592.03,499.56,489.65,5.11,0000 0000 0000 0000 000000
2014-09-16 05:19:36,0.00,0.08,0.00,22.88,27.15,29.55,9.46,40.55,1002.46,2039.78,3457.03,3309.00,3591.96,500.38,490.16,5.15,0000 0000 0000 0000 000000
2014-09-16 05:24:37,-0.01,0.08,0.00,22.89,27.17,29.55,9.43,40.29,1002.47,2039.55,3456.86,3308.97,3591.28,500.21,490.14,5.19,0000 0000 0000 0000 000000
2014-09-16 05:29:38,0.02,0.08,0.00,22.89,27.17,29.57,9.49,40.46,1002.46,2039.47,3456.13,3308.59,3591.01,500.11,490.14,5.23,0000 0000 0000 0000 000000
2014-09-16 05:34:40,0.00,0.08,0.00,22.90,27.17,29.57,9.47,40.29,1002.46,2039.27,3455.99,3308.08,3590.93,499.81,489.84,5.27,0000 0000 0000 0000 000000
2014-09-16 05:39:41,0.01,0.08,0.00,22.91,27.17,29.58,9.49,40.61,1002.46,2039.21,3455.55,3308.00,3590.20,500.11,490.09,5.32,0000 0000 0000 0000 000000
2014-09-16 05:44:42,0.01,0.08,0.00,22.91,27.19,29.57,9.46,40.55,1002.46,2039.14,3455.04,3308.00,3590.01,499.81,489.82,5.36,0000 0000 0000 0000 000000
2014-09-16 05:49:43,0.00,0.08,0.00,22.93,27.20,29.57,9.45,40.52,1002.45,2039.13,3455.00,3307.95,3589.95,499.76,489.62,5.40,0000 0000 0000 0000 000000
2014-09-16 05:54:44,0.04,0.08,0.00,22.93,27.20,29.59,9.44,40.47,1002.46,2039.08,3454.56,3307.46,3589.28,499.57,489.53,5.44,0000 0000 0000 0000 000000
2014-09-16 05:59:46,0.00,0.08,0.00,22.91,27.20,29.59,9.50,40.57,1002.43,2039.02,3454.03,3307.04,3589.00,500.35,490.28,5.48,0000 0000 0000 0000 000000
2014-09-16 06:04:47,0.03,0.08,0.00,22.92,27.20,29.62,9.42,40.51,1002.32,2039.01,3453.43,3306.99,3588.43,499.80,489.62,5.52,0000 0000 0000 0000 000000
2014-09-16 06:09:48,0.02,0.08,0.00,22.91,27.21,29.63,9.49,40.48,1002.09,2039.00,3452.99,3306.65,3588.02,500.27,490.01,5.57,0000 0000 0000 0000 000000
2014-09-16 06:14:50,0.03,0.08,0.00,22.94,27.22,29.63,9.43,40.35,1002.22,2039.00,3452.44,3306.07,3587.88,499.72,489.51,5.61,0000 0000 0000 0000 000000
2014-09-16 06:19:51,0.01,0.08,0.00,22.95,27.22,29.62,9.50,40.38,1002.25,2039.00,3452.00,3306.00,3587.12,500.04,489.80,5.65,0000 0000 0000 0000 000000
2014-09-16 06:24:52,0.01,0.08,0.00,22.97,27.22,29.61,9.52,40.46,1002.30,2039.00,3451.73,3305.98,3587.01,499.95,489.76,5.69,0000 0000 0000 0000 000000
2014-09-16 06:29:53,0.01,0.08,0.00,22.97,27.22,29.62,9.53,40.33,1002.43,2039.00,3451.08,3305.91,3586.95,500.12,489.92,5.73,0000 0000 0000 0000 000000
2014-09-16 06:34:55,0.04,0.09,0.00,22.96,27.23,29.61,9.45,40.35,1002.46,2039.00,3450.84,3305.33,3586.30,499.81,489.72,5.78,0000 0000 0000 0000 000000
2014-09-16 06:39:56,0.01,0.09,0.00,22.97,27.24,29.64,9.49,40.40,1002.46,2039.00,3450.26,3305.03,3586.00,500.20,489.86,5.82,0000 0000 0000 0000 000000
2014-09-16 06:44:57,0.00,0.09,0.00,22.96,27.25,29.63,9.42,40.42,1002.46,2039.00,3450.00,3305.00,3585.96,500.41,490.16,5.86,0000 0000 0000 0000 000000
2014-09-16 06:49:58,0.01,0.09,0.00,22.97,27.25,29.66,9.46,40.47,1002.45,2039.00,3449.78,3304.99,3585.48,500.07,489.90,5.90,0000 0000 0000 0000 000000
2014-09-16 06:54:59,0.01,0.09,0.00,22.97,27.25,29.64,9.48,40.37,1002.43,2039.00,3449.19,3304.91,3585.08,500.28,490.13,5.94,0000 0000 0000 0000 000000
2014-09-16 07:00:00,0.02,0.09,0.00,22.96,27.25,29.65,9.49,40.43,1002.45,2039.00,3448.99,3304.20,3584.99,499.89,489.58,5.98,0000 0000 0000 0000 000000
2014-09-16 07:05:01,0.02,0.09,0.00,22.96,27.25,29.67,9.49,40.46,1002.46,2039.00,3448.54,3304.03,3584.78,500.11,489.88,6.03,0000 0000 0000 0000 000000
2014-09-16 07:10:02,0.01,0.09,0.00,22.99,27.27,29.66,9.47,40.41,1002.46,2039.00,3448.06,3304.00,3584.19,500.24,490.18,6.07,0000 0000 0000 0000 000000
2014-09-16 07:15:03,0.00,0.09,0.00,23.00,27.27,29.67,9.43,40.61,1002.45,2038.98,3447.96,3303.96,3584.00,500.05,489.81,6.11,0000 0000 0000 0000 000000
2014-09-16 07:20:04,0.03,0.09,0.00,22.98,27.27,29.65,9.47,40.44,1002.44,2038.97,3447.32,3303.52,3583.94,500.34,490.15,6.15,0000 0000 0000 0000 000000
2014-09-16 07:25:05,0.02,0.09,0.00,22.99,27.27,29.65,9.48,40.63,1002.44,2038.98,3447.01,3303.07,3583.35,500.20,490.02,6.19,0000 0000 0000 0000 000000
2014-09-16 07:30:06,0.00,0.09,0.00,22.99,27.27,29.67,9.44,40.51,1002.45,2038.98,3446.98,3303.01,3583.02,500.46,490.25,6.24,0000 0000 0000 0000 000000
2014-09-16 07:35:07,0.01,0.09,0.00,22.97,27.29,29.66,9.45,40.48,1002.42,2038.96,3446.43,3303.00,3583.00,500.14,489.92,6.28,0000 0000 0000 0000 000000
2014-09-16 07:40:08,-0.00,0.10,0.00,22.99,27.30,29.67,9.42,40.42,1002.38,2038.96,3446.00,3302.95,3582.98,499.84,489.60,6.32,0000 0000 0000 0000 000000
2014-09-16 07:45:09,0.02,0.10,0.00,22.99,27.30,29.69,9.48,40.34,1002.27,2038.97,3445.92,3302.69,3582.70,500.12,489.92,6.36,0000 0000 0000 0000 000000
2014-09-16 07:50:11,0.03,0.10,0.00,23.01,27.30,29.71,9.45,40.36,1002.37,2038.95,3445.15,3302.06,3582.03,500.29,490.27,6.40,0000 0000 0000 0000 000000
2014-09-16 07:55:12,0.00,0.10,0.00,23.01,27.30,29.71,9.46,40.29,1002.17,2038.89,3444.99,3302.00,3582.00,500.55,490.22,6.44,0000 0000 0000 0000 000000
2014-09-16 08:00:13,0.01,0.10,0.00,23.04,27.31,29.71,9.43,40.42,1002.00,2038.77,3444.33,3301.97,3581.60,499.66,489.15,6.49,0000 0000 0000 0000 000000
2014-09-16 08:05:14,0.02,0.10,0.00,23.04,27.32,29.72,9.40,40.36,1001.97,2038.86,3444.00,3301.86,3581.11,499.67,489.27,6.53,0000 0000 0000 0000 000000
2014-09-16 08:10:15,0.02,0.10,0.00,23.04,27.32,29.69,9.43,40.45,1001.97,2038.92,3443.96,3301.54,3581.00,499.52,488.98,6.57,0000 0000 0000 0000 000000
2014-09-16 08:15:16,0.02,0.10,0.00,23.04,27.32,29.70,9.50,40.46,1001.97,2038.93,3443.47,3301.15,3580.99,500.46,489.77,6.61,0000 0000 0000 0000 000000
2014-09-16 08:20:18,0.01,0.10,0.00,23.04,27.32,29.71,9.41,40.42,1001.96,2038.92,3443.02,3301.01,3580.74,500.50,490.16,6.65,0000 0000 0000 0000 000000
2014-09-16 08:25:19,0.01,0.10,0.00,23.07,27.33,29.71,9.42,40.24,1001.91,2038.90,3442.97,3300.99,3580.05,499.66,489.02,6.70,0000 0000 0000 0000 000000
2014-09-16 08:30:20,0.00,0.10,0.00,23.07,27.34,29.73,9.43,40.30,1001.79,2038.81,3442.29,3300.98,3580.00,499.74,489.10,6.74,0000 0000 0000 0000 000000
2014-09-16 08:35:21,0.01,0.10,0.00,23.07,27.35,29.71,9.42,40.27,1001.85,2038.87,3442.01,3300.85,3579.98,499.70,489.14,6.78,0000 0000 0000 0000 000000
2014-09-16 08:40:23,0.02,0.10,0.00,23.10,27.35,29.73,9.43,40.28,1001.92,2038.70,3441.76,3300.14,3579.43,500.20,489.49,6.82,0000 0000 0000 0000 000000
2014-09-16 08:45:24,-0.02,0.10,0.00,23.10,27.35,29.74,9.41,40.07,1001.89,2038.47,3441.08,3300.01,3579.02,500.05,489.35,6.86,0000 0000 0000 0000 000000
2014-09-16 08:50:25,-0.01,0.10,0.00,23.09,27.35,29.72,9.46,40.22,1001.78,2038.17,3440.99,3299.99,3578.98,500.34,489.62,6.91,0000 0000 0000 0000 000000
2014-09-16 08:55:26,-0.00,0.10,0.00,23.08,27.36,29.75,9.49,40.22,1001.57,2038.10,3440.86,3299.97,3578.76,500.24,489.43,6.95,0000 0000 0000 0000 000000
2014-09-16 09:00:28,0.02,0.10,0.00,23.07,27.37,29.76,9.41,40.30,1001.49,2038.05,3440.18,3299.71,3578.15,499.87,489.22,6.99,0000 0000 0000 0000 000000
2014-09-16 09:05:29,0.01,0.10,0.00,23.09,27.37,29.77,9.40,40.23,1001.48,2038.06,3440.00,3299.23,3578.01,500.20,489.39,7.03,0000 0000 0000 0000 000000
2014-09-16 09:10:30,0.00,0.10,0.00,23.10,27.37,29.76,9.43,40.23,1001.49,2038.05,3439.97,3299.02,3577.99,499.91,489.03,7.07,0000 0000 0000 0000 000000
2014-09-16 09:15:31,0.02,0.10,0.00,23.08,27.37,29.77,9.47,40.21,1001.77,2038.05,3439.38,3299.00,3577.90,499.95,489.36,7.11,0000 0000 0000 0000 000000
2014-09-16 09:20:32,0.01,0.11,0.00,23.08,27.37,29.77,9.42,40.43,1001.89,2038.06,3439.01,3299.00,3577.39,499.21,488.50,7.16,0000 0000 0000 0000 000000
2014-09-16 09:25:33,0.00,0.11,0.00,23.10,27.38,29.76,9.41,40.36,1001.64,2038.06,3438.91,3298.97,3577.03,499.99,489.23,7.20,0000 0000 0000 0000 000000
2014-09-16 09:30:35,0.02,0.11,0.00,23.10,27.39,29.77,9.41,40.33,1001.52,2038.04,3438.16,3298.87,3577.00,499.75,488.80,7.24,0000 0000 0000 0000 000000
2014-09-16 09:35:36,0.01,0.11,0.00,23.11,27.40,29.80,9.41,40.23,1001.50,2038.06,3438.00,3298.42,3576.92,499.86,489.01,7.28,0000 0000 0000 0000 000000
2014-09-16 09:40:37,0.02,0.11,0.00,23.11,27.40,29.79,9.46,40.04,1001.53,2038.03,3437.79,3298.03,3576.33,500.28,489.44,7.32,0000 0000 0000 0000 000000
2014-09-16 09:45:38,0.01,0.11,0.00,23.10,27.40,29.82,9.51,40.12,1001.53,2038.01,3437.11,3298.00,3576.01,499.95,489.13,7.37,0000 0000 0000 0000 000000
2014-09-16 09:50:40,-0.00,0.11,0.00,23.10,27.40,29.80,9.48,40.15,1001.48,2038.02,3436.98,3297.99,3575.99,500.22,489.34,7.41,0000 0000 0000 0000 000000
2014-09-16 09:55:41,0.03,0.11,0.00,23.10,27.40,29.81,9.47,40.09,1001.48,2038.00,3436.49,3297.84,3575.51,500.01,489.07,7.45,0000 0000 0000 0000 000000
2014-09-16 10:00:42,0.01,0.11,0.00,23.09,27.40,29.80,9.43,40.07,1001.25,2038.01,3436.06,3297.66,3575.09,500.01,489.06,7.49,0000 0000 0000 0000 000000
2014-09-16 10:05:43,0.01,0.11,0.00,23.08,27.40,29.81,9.48,40.10,1001.18,2038.01,3436.00,3297.33,3575.01,500.08,489.09,7.53,0000 0000 0000 0000 000000
2014-09-16 10:10:45,0.01,0.11,0.00,23.07,27.40,29.81,9.50,40.09,1001.20,2038.02,3435.84,3297.10,3575.00,500.34,489.45,7.57,0000 0000 0000 0000 000000
2014-09-16 10:15:46,0.02,0.11,0.00,23.06,27.40,29.82,9.46,40.13,1001.03,2038.04,3435.15,3297.01,3574.82,499.83,488.81,7.62,0000 0000 0000 0000 000000
2014-09-16 10:20:47,0.00,0.11,0.00,23.06,27.41,29.80,9.50,40.16,1000.99,2038.03,3435.00,3297.00,3574.30,499.87,488.91,7.66,0000 0000 0000 0000 000000
2014-09-16 10:25:48,0.00,0.11,0.00,23.07,27.41,29.84,9.37,40.23,1000.99,2038.02,3434.82,3296.99,3574.05,499.75,488.66,7.70,0000 0000 0000 0000 000000
2014-09-16 10:30:49,0.07,0.12,0.00,23.06,27.41,29.83,9.46,40.34,1000.99,2038.01,3433.35,3296.16,3573.25,499.63,488.73,7.74,0000 0000 0000 0000 000000
2014-09-16 10:35:51,0.01,0.12,0.00,23.06,27.41,29.81,9.44,40.30,1000.99,2038.03,3433.00,3296.01,3573.01,500.06,489.06,7.78,0000 0000 0000 0000 000000
2014-09-16 10:40:52,0.00,0.12,0.00,23.06,27.41,29.81,9.44,40.02,1000.88,2038.01,3432.86,3296.00,3572.99,499.96,488.98,7.83,0000 0000 0000 0000 000000
2014-09-16 10:45:53,0.01,0.12,0.00,23.05,27.40,29.82,9.52,40.04,1000.65,2038.02,3432.27,3295.99,3572.86,500.17,488.91,7.87,0000 0000 0000 0000 000000
2014-09-16 10:50:55,0.01,0.12,0.00,23.04,27.40,29.83,9.55,40.15,1000.63,2038.05,3432.01,3295.97,3572.21,500.26,489.09,7.91,0000 0000 0000 0000 000000
2014-09-16 10:55:56,0.01,0.12,0.00,23.03,27.40,29.83,9.46,40.15,1000.57,2038.06,3431.99,3295.96,3572.03,499.95,488.76,7.95,0000 0000 0000 0000 000000
2014-09-16 11:00:57,0.02,0.12,0.00,23.02,27.40,29.82,9.46,40.09,1000.54,2038.04,3431.70,3295.48,3572.00,499.75,488.57,7.99,0000 0000 0000 0000 000000
2014-09-16 11:05:58,0.01,0.12,0.00,23.04,27.40,29.80,9.47,39.99,1000.51,2038.07,3431.13,3295.36,3571.98,500.09,488.83,8.03,0000 0000 0000 0000 000000
2014-09-16 11:10:59,0.01,0.12,0.00,23.01,27.40,29.79,9.50,40.15,1000.53,2038.04,3431.00,3295.07,3571.61,500.04,488.87,8.08,0000 0000 0000 0000 000000
2014-09-16 11:16:00,0.07,0.12,0.00,23.00,27.40,29.80,9.45,40.17,1000.53,2038.03,3430.08,3294.56,3570.66,500.00,488.76,8.12,0000 0000 0000 0000 000000
2014-09-16 11:21:02,0.02,0.12,0.00,22.99,27.40,29.79,9.45,39.84,1000.52,2038.02,3428.91,3294.00,3570.01,500.05,488.87,8.16,0000 0000 0000 0000 000000
2014-09-16 11:26:03,0.02,0.13,0.00,22.98,27.40,29.84,9.42,40.04,1000.52,2038.04,3428.35,3293.95,3569.96,499.93,488.79,8.20,0000 0000 0000 0000 000000
2014-09-16 11:31:04,0.03,0.13,0.00,22.99,27.40,29.81,9.46,40.16,1000.53,2038.01,3427.99,3293.41,3569.34,499.77,488.65,8.24,0000 0000 0000 0000 000000
2014-09-16 11:36:05,0.02,0.13,0.00,22.98,27.40,29.79,9.42,40.17,1000.50,2038.01,3427.49,3293.04,3569.01,499.98,488.87,8.29,0000 0000 0000 0000 000000
2014-09-16 11:41:06,0.00,0.13,0.00,22.99,27.40,29.78,9.40,40.14,1000.50,2038.02,3427.01,3293.00,3569.00,500.14,488.91,8.33,0000 0000 0000 0000 000000
2014-09-16 11:46:07,0.01,0.13,0.00,22.97,27.39,29.79,9.49,40.23,1000.50,2038.01,3426.86,3293.00,3568.79,500.26,489.11,8.37,0000 0000 0000 0000 000000
2014-09-16 11:51:09,0.02,0.13,0.00,22.97,27.38,29.80,9.38,40.13,1000.50,2038.02,3426.27,3292.98,3568.31,499.29,488.14,8.41,0000 0000 0000 0000 000000
2014-09-16 11:56:10,0.01,0.13,0.00,22.95,27.38,29.78,9.45,40.25,1000.45,2038.03,3426.01,3292.90,3568.04,499.86,488.74,8.45,0000 0000 0000 0000 000000
2014-09-16 12:01:11,0.01,0.13,0.00,22.97,27.37,29.80,9.45,40.27,1000.31,2038.02,3425.93,3292.42,3568.00,500.22,488.98,8.49,0000 0000 0000 0000 000000
2014-09-16 12:06:12,0.02,0.13,0.00,22.96,27.37,29.79,9.46,40.16,1000.33,2038.06,3425.42,3292.11,3567.99,500.29,489.09,8.54,0000 0000 0000 0000 000000
2014-09-16 12:11:13,0.01,0.13,0.00,22.94,27.37,29.79,9.43,40.24,1000.30,2038.06,3425.02,3292.02,3567.70,500.11,489.01,8.58,0000 0000 0000 0000 000000
2014-09-16 12:16:14,0.01,0.13,0.00,22.93,27.37,29.79,9.43,40.18,1000.19,2038.03,3424.92,3292.00,3567.05,500.26,488.94,8.62,0000 0000 0000 0000 000000
2014-09-16 12:21:15,0.02,0.13,0.00,22.94,27.37,29.77,9.44,40.07,1000.21,2038.04,3424.20,3291.96,3566.99,499.89,488.81,8.66,0000 0000 0000 0000 000000
2014-09-16 12:26:15,0.02,0.13,0.00,22.96,27.37,29.78,9.46,40.19,1000.09,2038.09,3423.94,3291.63,3566.75,500.29,488.93,8.70,0000 0000 0000 0000 000000
2014-09-16 12:31:17,0.03,0.14,0.00,22.93,27.35,29.75,9.50,40.26,1000.04,2038.06,3423.35,3291.09,3566.08,500.18,488.89,8.75,0000 0000 0000 0000 000000
2014-09-16 12:36:18,0.00,0.14,0.00,22.92,27.35,29.77,9.43,40.08,1000.04,2038.02,3423.02,3291.00,3566.00,499.47,488.28,8.79,0000 0000 0000 0000 000000
2014-09-16 12:41:19,0.01,0.14,0.00,22.91,27.35,29.76,9.41,40.12,1000.03,2038.00,3422.75,3290.99,3565.93,499.56,488.18,8.83,0000 0000 0000 0000 000000
2014-09-16 12:46:20,0.02,0.14,0.00,22.91,27.35,29.75,9.44,40.29,1000.06,2038.00,3422.16,3290.91,3565.53,499.85,488.62,8.87,0000 0000 0000 0000 000000
2014-09-16 12:51:21,0.01,0.14,0.00,22.90,27.35,29.75,9.43,40.16,1000.06,2038.01,3422.00,3290.73,3565.04,500.20,488.73,8.91,0000 0000 0000 0000 000000
2014-09-16 12:56:22,0.01,0.14,0.00,22.89,27.33,29.72,9.42,40.12,1000.07,2038.01,3421.98,3290.34,3565.00,499.94,488.83,8.95,0000 0000 0000 0000 000000
2014-09-16 13:01:23,0.01,0.14,0.00,22.87,27.32,29.74,9.37,40.23,1000.45,2038.02,3421.59,3290.07,3565.00,499.96,488.85,9.00,0000 0000 0000 0000 000000
2014-09-16 13:06:24,0.01,0.14,0.00,22.86,27.32,29.72,9.44,40.13,1000.51,2038.04,3421.10,3290.04,3565.00,499.99,489.05,9.04,0000 0000 0000 0000 000000